This is the latest recevied weather packets stored in our database for station/object W1LBM. If no packets are shown the sender has not sent any weather packets the latest 10 day(s).
| Time | Temp. | Humidity | Pressure | Rain* | Wind** | Luminosity | Snow |
|---|---|---|---|---|---|---|---|
| 1777830515 | 11.11° C | 45% | 1009.2 hPa | 0 mm | - | 338 W/m² | - |
| 1777830214 | 11.11° C | 44% | 1009.3 hPa | 0 mm | - | 285 W/m² | - |
| 1777829914 | 10.56° C | 47% | 1009.2 hPa | 0 mm | - | 224 W/m² | - |
| 1777829611 | 10.56° C | 46% | 1009.4 hPa | 0 mm | - | 133 W/m² | - |
| 1777829307 | 11.11° C | 48% | 1009.3 hPa | 0 mm | - | 155 W/m² | - |
| 1777829005 | 11.11° C | 47% | 1009.2 hPa | 0 mm | - | 228 W/m² | - |
| 1777828701 | 11.11° C | 49% | 1009.2 hPa | 0 mm | - | 309 W/m² | - |
| 1777828398 | 11.11° C | 47% | 1009.3 hPa | 0 mm | - | 364 W/m² | - |
| 1777828095 | 10.56° C | 48% | 1009.2 hPa | 0 mm | - | 258 W/m² | - |
| 1777827791 | 11.11° C | 50% | 1009.3 hPa | 0 mm | - | 249 W/m² | - |
| 1777827488 | 10.56° C | 50% | 1009.4 hPa | 0 mm | - | 313 W/m² | - |
| 1777827186 | 10.56° C | 50% | 1009.4 hPa | 0 mm | - | 277 W/m² | - |
| 1777826882 | 10° C | 49% | 1009.4 hPa | 0 mm | - | 292 W/m² | - |
| 1777826580 | 10° C | 50% | 1009.3 hPa | 0 mm | - | 318 W/m² | - |
| 1777826275 | 10° C | 53% | 1009.5 hPa | 0 mm | - | 254 W/m² | - |
| 1777825974 | 10° C | 52% | 1009.6 hPa | 0 mm | - | 313 W/m² | - |
| 1777825670 | 10° C | 51% | 1009.4 hPa | 0 mm | - | 277 W/m² | - |
| 1777825368 | 10° C | 53% | 1009.5 hPa | 0 mm | - | 266 W/m² | - |
| 1777825064 | 10° C | 55% | 1009.6 hPa | 0 mm | - | 297 W/m² | - |
| 1777824760 | 9.44° C | 55% | 1009.6 hPa | 0 mm | - | 299 W/m² | - |
| 1777824458 | 9.44° C | 55% | 1009.6 hPa | 0 mm | - | 241 W/m² | - |
| 1777824154 | 9.44° C | 60% | 1009.5 hPa | 0 mm | - | 285 W/m² | - |
| 1777823850 | 9.44° C | 60% | 1009.4 hPa | 0 mm | - | 353 W/m² | - |
| 1777823548 | 8.89° C | 63% | 1009.5 hPa | 0 mm | - | 418 W/m² | - |
| 1777823245 | 8.33° C | 66% | 1009.6 hPa | 0 mm | - | 214 W/m² | - |
* Rain latest hour (hover to see other rain measurements)
** Current wind speed in m/s (hover to see current wind gust speed)